User: anonymous   Login
Location: Unspecified
(0.0000°N, 0.0000°E)
Time: 01:43:57
(UTC+00:00)
Language:

COSMOS 2468 - Orbit

View from above orbital plane
View from above orbital plane
View from above satellite
View from above satellite

Ground track
Ground track

The orbit data is extracted from the following two-line orbital elements,

1 37154U 10043C   17327.17770825  .00000026  00000-0  11750-3 0  9990
2 37154  82.4642 220.5410 0014062 295.4868  64.4757 12.43636471327111
Epoch (UTC): 23 November 2017 04:15:53
Eccentricity: 0.0014062
inclination: 82.4642°
perigee height: 1480 km
apogee height: 1502 km
right ascension of ascending node: 220.5410°
argument of perigee: 295.4868°
revolutions per day: 12.43636471
mean anomaly at epoch: 64.4757°
orbit number at epoch: 32711

The dashed part of the orbit path shows where the satellite is in the earth's shadow,  

DLR